Skip Page Navigation
NASA JPL Caltech
NASA Logo - Jet Propulsion Laboratory + View the NASA Portal
+ Center for Near-Earth Object Studies
JPL Home Earth Solar System Stars & Galaxies Technology
JPL Solar System Dynamics
BODIES ORBITS EPHEMERIDES TOOLS PHYSICAL DATA DISCOVERY FAQ SITE MAP
JPL Small-Body Database Browser
Search: [ help ]  
1606 Jekhovsky (1950 RH)
Classification: Main-belt Asteroid          SPK-ID: 2001606
Ephemeris | Orbit Diagram | Orbital Elements | Mission Design | Physical Parameters | Discovery Circumstances | Close-Approach Data ]

[ show orbit diagram ]
Orbital Elements at Epoch 2459200.5 (2020-Dec-17.0) TDB
Reference: JPL 40 (heliocentric ecliptic J2000)
 Element Value Uncertainty (1-sigma)   Units 
e .3191061192121527 2.0639e-08  
a 2.688080685899735 6.0558e-09 au
q 1.830297690093129 5.768e-08 au
i 7.719394590011483 5.6361e-07 deg
node 190.3237181601493 1.7088e-06 deg
peri 142.8637438460678 1.4325e-06 deg
M 332.3612216182149 3.0848e-06 deg
tp 2459324.088545275861
(2021-Apr-19.58854528)
1.4098e-05 TDB
period 1609.762764646337
4.41
5.4397e-06
1.489e-08
d
yr
n .2236354374112335 7.5571e-10 deg/d
Q 3.54586368170634 7.9882e-09 au
  Orbit Determination Parameters
   # obs. used (total)      2851  
   data-arc span      41624 days (113.96 yr)  
   first obs. used      1906-10-13  
   last obs. used      2020-09-28  
   planetary ephem.      DE441  
   SB-pert. ephem.      SB441-N16  
   condition code      0  
   norm. resid. RMS      .47763  
   source      ORB  
   producer      Otto Matic  
   solution date      2021-May-03 19:36:44  

Additional Information
 Earth MOID = .825862 au 
 Jupiter MOID = 1.90095 au 
 T_jup = 3.286 
[ show covariance matrix ]

Ephemeris | Orbit Diagram | Orbital Elements | Mission Design | Physical Parameters | Discovery Circumstances | Close-Approach Data ]

Physical Parameter Table
Parameter Symbol Value Units Sigma Reference Notes
absolute magnitude H 12.04   n/a E2021B10  
diameter diameter 18.981 km 0.340 urn:nasa:pds:neowise_diameters_albedos::2.0[mainbelt] (http://adsabs.harvard.edu/abs/2011ApJ...741...68M)  
rotation period rot_per 165.946 h n/a LCDB (Rev. 2020-October); Warner et al., 2009 Result based on less than full coverage, so that the period may be wrong by 30 percent or so.
Published Reference List:
[Waszczak, A.; Chang, C.-K.; Ofeck, E.O.; Laher, F.; et al. (2015) Astron. J. 150, A75.]
geometric albedo albedo 0.033   0.007 urn:nasa:pds:neowise_diameters_albedos::2.0[mainbelt] (http://adsabs.harvard.edu/abs/2012ApJ...759L...8M)  
B-V BV 0.734   0.025 EAR-A-5-DDR-UBV-MEAN-VALUES-V1.2 #obs=2; phase (min.=12.70, mean=17.83, max.=22.97) deg.
U-B UB 0.390   0.047 EAR-A-5-DDR-UBV-MEAN-VALUES-V1.2 #obs=2; phase (min.=12.70, mean=17.83, max.=22.97) deg.
Tholen spectral type spec_T C   n/a EAR-A-5-DDR-TAXONOMY-V4.0 used 7 color indices

1606 Jekhovsky (1950 RH)          Discovered 1950-Sep-14 by Boyer, L. at Algiers
Reference: DISCOVERY.DBLast Updated: 2003-08-29

[ hide close-approach data ]
Close-Approach Data   ...sorted by Date/Time (TDB)
Date/Time (TDB) Time Uncertainty
(days_HH:MM)
Body Nominal Distance (au) Minimum Distance (au) Maximum Distance (au) V-relative (km/s) V-infinity (km/s) JD (TDB) Time Uncertainty (minutes) Semi-major axis (km) Semi-minor axis (km) range-LOV angle (deg) N-sigma BP Orbit Ref. Reference Modified
1908-Jul-26 23:41 00:01 Jupiter 1.89070272317976 1.8907025426683 1.89070290369305 1.00781911134973 0.345994771063985 2418149.486564429 1.00693670184499 2465.02672833142 200.132777466825 -0.734726713786999 2520055.53266646 T 40 CATAB v2.0g-lin.ifort 2021-May-03 19:39:01 2021-May-03 19:39
1943-Aug-29 23:17 < 00:01 Jupiter 1.94588763099062 1.94588734806978 1.94588791391162 0.81645616523679 n/a 2430966.470448757 0.692542928336644 34.0547176464155 6.24344030650586 67.7958236205842 43276715.6665929 F 40 CATAB v2.0g-lin.ifort 2021-May-03 19:39:01 2021-May-03 19:39
2063-May-03 17:58 < 00:01 Jupiter 1.90899349038022 1.90899326762994 1.90899371313257 1.48995662628371 1.1543693294057 2474678.248509703 0.483210138543217 128.06183196462 18.4023211372676 73.485569519926 12962993.2801016 T 40 CATAB v2.0g-lin.ifort 2021-May-03 19:39:01 2021-May-03 19:39
2098-Jun-12 23:34 < 00:01 Jupiter 1.89013519089612 1.89013505234316 1.89013532944961 1.18862339890988 0.718727747933388 2487502.481772530 0.833656759352234 313.601650653294 67.7636579539458 28.7494019154906 6813940.27487331 T 40 CATAB v2.0g-lin.ifort 2021-May-03 19:39:01 2021-May-03 19:39
2133-Jul-17 10:58 00:01 Jupiter 1.95617197914251 1.95617154624891 1.95617241204557 0.979617504418185 0.306023544538473 2500319.957091338 1.25555513010171 2244.58969150365 379.593474981121 -8.86716855912252 4946423.16877611 T 40 CATAB v2.0g-lin.ifort 2021-May-03 19:39:01 2021-May-03 19:39

Alternate Designations
 1950 RH = 1928 RL = 1937 TS = 1937 VO = A906 SG 
Ephemeris | Orbit Diagram | Orbital Elements | Mission Design | Physical Parameters | Discovery Circumstances | Close-Approach Data ]
ABOUT SSD CREDITS/AWARDS PRIVACY/COPYRIGHT GLOSSARY LINKS
FirstGov 2021-Jun-19 01:45 UT
(server date/time)  
NASA Home Page
Site Manager:   Ryan S. Park
Webmaster  Alan B. Chamberlin